Tracking 25703 objects as of 3-Jul-2022
HD Live streaming from Space Station
objects crossing your sky now

STARLINK-1732

Track STARLINK-1732 now!
10-day predictions
STARLINK-1732 is classified as:


NORAD ID: 46584
Int'l Code: 2020-070BE
Perigee: 553.1 km
Apogee: 555.6 km
Inclination: 53.1 °
Period: 95.6 minutes
Semi major axis: 6925 km
RCS: Unknown
Launch date: October 6, 2020
Source: United States (US)
Launch site: AIR FORCE EASTERN TEST RANGE (AFETR)
aabbcc
Your satellite tracking list
Your tracking list is empty




NASA's NSSDC Master Catalog

Two Line Element Set (TLE):
1 46584U 20070BE  22183.42944605 -.00000975  00000-0 -46539-4 0  9990
2 46584  53.0553  80.2227 0001749  70.0848 290.0329 15.06398024 96872
Source of the keplerian elements: AFSPC